• In Belarus
  • List of Countries
  • For 7 days
  • Water Temperature
  • Satellite Maps
  • Weather Map
  • Weather Widgets
  • user-avatar
    Login

    Hourly Weather Salata

    Today, 15 October, Monday

    Time Temperature Precipitation Wind Pressure Humidity
    00:00 +11°C° 0 mm 3 mps 742 mmHg 66%
    01:00 +12°C° 0 mm 2 mps 742 mmHg 68%
    02:00 +10°C° 0 mm 2 mps 742 mmHg 68%
    03:00 +10°C° 0 mm 2 mps 741 mmHg 69%
    04:00 +10°C° 0 mm 2 mps 741 mmHg 70%
    05:00 +10°C° 0 mm 2 mps 741 mmHg 69%
    06:00 +10°C° 0 mm 2 mps 742 mmHg 69%
    07:00 +10°C° 0 mm 2 mps 742 mmHg 68%
    08:00 +13°C° 0 mm 2 mps 742 mmHg 60%
    09:00 +16°C° 0 mm 2 mps 742 mmHg 53%
    10:00 +18°C° 0 mm 2 mps 742 mmHg 45%
    11:00 +19°C° 0 mm 2 mps 742 mmHg 41%
    12:00 +20°C° 0 mm 2 mps 742 mmHg 37%
    13:00 +23°C° 0 mm 2 mps 742 mmHg 34%
    14:00 +21°C° 0 mm 2 mps 741 mmHg 36%
    15:00 +20°C° 0 mm 2 mps 741 mmHg 38%
    16:00 +19°C° 0 mm 2 mps 741 mmHg 41%
    17:00 +17°C° 0 mm 2 mps 741 mmHg 43%
    18:00 +16°C° 0 mm 2 mps 741 mmHg 46%
    19:00 +13°C° 0 mm 3 mps 741 mmHg 49%
    20:00 +12°C° 0 mm 3 mps 741 mmHg 51%
    21:00 +13°C° 0 mm 2 mps 741 mmHg 54%
    22:00 +12°C° 0 mm 2 mps 741 mmHg 56%
    23:00 +12°C° 0 mm 2 mps 741 mmHg 57%

    Tomorrow, 16 October, Tuesday

    Time Temperature Precipitation Wind Pressure Humidity
    00:00 +10°C° 0 mm 2 mps 741 mmHg 57%
    01:00 +10°C° 0 mm 2 mps 741 mmHg 58%
    02:00 +10°C° 0 mm 2 mps 740 mmHg 58%
    03:00 +10°C° 0 mm 1 mps 740 mmHg 58%
    04:00 +10°C° 0 mm 1 mps 740 mmHg 58%
    05:00 +11°C° 0 mm 1 mps 740 mmHg 58%
    06:00 +11°C° 0 mm 1 mps 741 mmHg 57%
    07:00 +11°C° 0 mm 1 mps 741 mmHg 57%
    08:00 +13°C° 0 mm 1 mps 741 mmHg 51%
    09:00 +16°C° 0 mm 1 mps 741 mmHg 46%
    10:00 +17°C° 0 mm 0 mps 741 mmHg 40%
    11:00 +20°C° 0 mm 1 mps 741 mmHg 37%
    12:00 +21°C° 0 mm 1 mps 741 mmHg 34%
    13:00 +22°C° 0 mm 1 mps 741 mmHg 31%
    14:00 +21°C° 0 mm 1 mps 741 mmHg 35%
    15:00 +20°C° 0 mm 1 mps 741 mmHg 38%
    16:00 +19°C° 0 mm 1 mps 741 mmHg 41%
    17:00 +18°C° 0 mm 1 mps 741 mmHg 44%
    18:00 +16°C° 0 mm 1 mps 741 mmHg 46%
    19:00 +14°C° 0 mm 1 mps 741 mmHg 49%
    20:00 +14°C° 0 mm 1 mps 741 mmHg 50%
    21:00 +13°C° 0 mm 1 mps 741 mmHg 51%
    22:00 +13°C° 0 mm 1 mps 741 mmHg 52%
    23:00 +13°C° 0 mm 1 mps 741 mmHg 53%

    Day after tomorrow, 17 October, Wednesday

    Time Temperature Precipitation Wind Pressure Humidity
    00:00 +12°C° 0 mm 1 mps 741 mmHg 54%
    01:00 +12°C° 0 mm 1 mps 741 mmHg 55%
    02:00 +11°C° 0 mm 0 mps 741 mmHg 56%
    03:00 +11°C° 0 mm 0 mps 741 mmHg 56%
    04:00 +10°C° 0 mm 0 mps 741 mmHg 56%
    05:00 +12°C° 0 mm 1 mps 741 mmHg 56%
    06:00 +12°C° 0 mm 1 mps 741 mmHg 56%
    07:00 +12°C° 0 mm 1 mps 741 mmHg 56%
    08:00 +14°C° 0 mm 1 mps 741 mmHg 51%
    09:00 +16°C° 0 mm 2 mps 741 mmHg 46%
    10:00 +18°C° 0 mm 2 mps 741 mmHg 41%
    11:00 +19°C° 0 mm 2 mps 741 mmHg 39%
    12:00 +21°C° 0 mm 1 mps 741 mmHg 36%
    13:00 +22°C° 0 mm 1 mps 741 mmHg 34%
    14:00 +21°C° 0 mm 1 mps 740 mmHg 37%
    15:00 +20°C° 0 mm 1 mps 740 mmHg 40%
    16:00 +19°C° 0 mm 1 mps 740 mmHg 43%
    17:00 +18°C° 0 mm 1 mps 740 mmHg 46%
    18:00 +16°C° 0 mm 1 mps 740 mmHg 49%
    19:00 +15°C° 0 mm 2 mps 740 mmHg 51%
    20:00 +14°C° 0 mm 2 mps 740 mmHg 53%
    21:00 +14°C° 0 mm 1 mps 740 mmHg 54%
    22:00 +13°C° 0 mm 1 mps 740 mmHg 55%
    23:00 +13°C° 0 mm 1 mps 740 mmHg 57%

    18 October, Thursday

    Time Temperature Precipitation Wind Pressure Humidity
    00:00 +12°C° 0 mm 1 mps 740 mmHg 59%
    01:00 +12°C° 0 mm 1 mps 740 mmHg 61%
    02:00 +11°C° 0 mm 1 mps 740 mmHg 63%
    03:00 +11°C° 0 mm 1 mps 739 mmHg 66%
    04:00 +11°C° 0 mm 1 mps 739 mmHg 68%
    05:00 +11°C° 0 mm 1 mps 739 mmHg 69%
    06:00 +10°C° 0 mm 0 mps 739 mmHg 70%
    07:00 +10°C° 0 mm 0 mps 739 mmHg 72%
    08:00 +12°C° 0 mm 0 mps 739 mmHg 64%
    09:00 +14°C° 0 mm 0 mps 739 mmHg 57%
    10:00 +16°C° 0 mm 0 mps 740 mmHg 49%
    11:00 +17°C° 0 mm 0 mps 739 mmHg 46%
    12:00 +18°C° 0 mm 0 mps 739 mmHg 42%
    13:00 +21°C° 0 mm 1 mps 739 mmHg 39%
    14:00 +21°C° 0 mm 1 mps 739 mmHg 42%
    15:00 +20°C° 0 mm 1 mps 739 mmHg 46%
    16:00 +19°C° 0 mm 1 mps 739 mmHg 49%
    17:00 +18°C° 0 mm 1 mps 739 mmHg 53%
    18:00 +15°C° 0 mm 1 mps 739 mmHg 56%
    19:00 +14°C° 0 mm 1 mps 739 mmHg 60%
    20:00 +14°C° 0 mm 1 mps 739 mmHg 62%
    21:00 +13°C° 0 mm 1 mps 739 mmHg 65%
    22:00 +13°C° 0 mm 1 mps 739 mmHg 67%
    23:00 +13°C° 0 mm 1 mps 739 mmHg 68%

    19 October, Friday

    Time Temperature Precipitation Wind Pressure Humidity
    00:00 +12°C° 0 mm 1 mps 739 mmHg 69%
    01:00 +12°C° 0 mm 1 mps 739 mmHg 70%
    02:00 +12°C° 0 mm 1 mps 739 mmHg 71%
    03:00 +11°C° 0 mm 1 mps 739 mmHg 73%
    04:00 +11°C° 0 mm 1 mps 739 mmHg 74%
    05:00 +11°C° 0 mm 1 mps 739 mmHg 74%
    06:00 +11°C° 0 mm 1 mps 740 mmHg 75%
    07:00 +11°C° 0 mm 1 mps 740 mmHg 76%
    08:00 +13°C° 0 mm 1 mps 740 mmHg 69%
    09:00 +15°C° 0 mm 2 mps 740 mmHg 63%
    10:00 +17°C° 0 mm 2 mps 740 mmHg 57%
    11:00 +18°C° 0 mm 2 mps 740 mmHg 55%
    12:00 +19°C° 0 mm 2 mps 740 mmHg 53%
    13:00 +19°C° 0 mm 2 mps 740 mmHg 51%
    14:00 +19°C° 0 mm 2 mps 740 mmHg 55%
    15:00 +18°C° 0 mm 2 mps 740 mmHg 59%
    16:00 +17°C° 0 mm 2 mps 740 mmHg 62%
    17:00 +16°C° 0 mm 2 mps 740 mmHg 68%
    18:00 +15°C° 0 mm 2 mps 740 mmHg 73%
    19:00 +13°C° 0 mm 2 mps 740 mmHg 78%
    20:00 +13°C° 0 mm 2 mps 740 mmHg 80%
    21:00 +13°C° 0 mm 2 mps 741 mmHg 81%
    22:00 +12°C° 0 mm 2 mps 741 mmHg 83%
    23:00 +12°C° 0 mm 2 mps 741 mmHg 85%

    20 October, Saturday

    Time Temperature Precipitation Wind Pressure Humidity
    00:00 +12°C° 0 mm 2 mps 741 mmHg 87%
    01:00 +10°C° 0 mm 2 mps 741 mmHg 89%
    02:00 +10°C° 0 mm 2 mps 741 mmHg 89%
    03:00 +10°C° 0 mm 2 mps 741 mmHg 90%
    04:00 +10°C° 0 mm 2 mps 741 mmHg 90%
    05:00 +10°C° 0 mm 2 mps 741 mmHg 88%
    06:00 +10°C° 0 mm 2 mps 742 mmHg 86%
    07:00 +10°C° 0 mm 3 mps 742 mmHg 83%
    08:00 +11°C° 0 mm 3 mps 742 mmHg 76%
    09:00 +12°C° 0 mm 3 mps 742 mmHg 69%
    10:00 +12°C° 0 mm 4 mps 743 mmHg 62%
    11:00 +13°C° 0 mm 4 mps 743 mmHg 57%
    12:00 +13°C° 0 mm 4 mps 742 mmHg 52%
    13:00 +13°C° 0 mm 4 mps 742 mmHg 48%
    14:00 +13°C° 0 mm 4 mps 742 mmHg 50%
    15:00 +12°C° 0 mm 4 mps 742 mmHg 53%
    16:00 +11°C° 0 mm 4 mps 742 mmHg 55%
    17:00 +10°C° 0 mm 3 mps 743 mmHg 62%
    18:00 +9°C° 0 mm 3 mps 743 mmHg 68%
    19:00 +8°C° 0 mm 3 mps 743 mmHg 74%
    20:00 +8°C° 0 mm 3 mps 744 mmHg 75%
    21:00 +8°C° 0 mm 3 mps 744 mmHg 76%
    22:00 +8°C° 0 mm 3 mps 744 mmHg 76%
    23:00 +8°C° 0 mm 3 mps 744 mmHg 76%
    Show more